TimeMDT,TemperatureF,Dew PointF,Humidity,Sea Level PressureIn,VisibilityMPH,Wind Direction,Wind SpeedMPH,Gust SpeedMPH,PrecipitationIn,Events,Conditions,WindDirDegrees,DateUTC
12:56 AM,30.9,28.9,92,29.75,-9999.0,West,5.8,-,N/A,,Unknown,270,2013-10-31 06:56:00
1:56 AM,30.9,28.0,89,29.73,-9999.0,WSW,8.1,-,N/A,,Unknown,240,2013-10-31 07:56:00
2:56 AM,33.1,28.9,85,29.71,-9999.0,West,12.7,-,N/A,,Unknown,270,2013-10-31 08:56:00
3:56 AM,32.0,28.9,88,29.71,-9999.0,West,9.2,-,N/A,,Unknown,270,2013-10-31 09:56:00
4:56 AM,32.0,28.9,88,29.70,-9999.0,West,9.2,-,N/A,,Unknown,280,2013-10-31 10:56:00
5:56 AM,30.9,28.0,89,29.71,-9999.0,WNW,11.5,-,N/A,,Unknown,290,2013-10-31 11:56:00
6:56 AM,32.0,28.9,88,29.70,-9999.0,WNW,13.8,-,N/A,,Unknown,290,2013-10-31 12:56:00
7:56 AM,32.0,28.9,88,29.70,-9999.0,West,11.5,-,N/A,,Unknown,280,2013-10-31 13:56:00
8:56 AM,35.1,30.0,82,29.69,-9999.0,WNW,16.1,-,N/A,,Unknown,300,2013-10-31 14:56:00
9:56 AM,39.0,33.1,79,29.68,-9999.0,NW,19.6,-,N/A,,Unknown,310,2013-10-31 15:56:00
10:56 AM,43.0,34.0,71,29.68,-9999.0,NW,21.9,26.5,N/A,,Unknown,310,2013-10-31 16:56:00
11:56 AM,46.9,34.0,61,29.66,-9999.0,NW,28.8,34.5,N/A,,Unknown,310,2013-10-31 17:56:00
12:56 PM,45.0,35.1,68,29.65,-9999.0,WNW,29.9,34.5,N/A,,Unknown,300,2013-10-31 18:56:00
1:56 PM,48.0,36.0,63,29.62,-9999.0,NW,23.0,29.9,0.01,,Unknown,310,2013-10-31 19:56:00
2:56 PM,50.0,35.1,57,29.61,-9999.0,NW,17.3,-,N/A,,Unknown,310,2013-10-31 20:56:00
3:56 PM,51.1,36.0,56,29.62,-9999.0,WNW,17.3,-,N/A,,Unknown,290,2013-10-31 21:56:00
4:56 PM,48.9,32.0,52,29.63,-9999.0,NW,15.0,23.0,N/A,,Unknown,310,2013-10-31 22:56:00
5:56 PM,46.0,33.1,61,29.64,-9999.0,NW,11.5,-,N/A,,Unknown,310,2013-10-31 23:56:00
6:56 PM,46.9,32.0,56,29.65,-9999.0,NW,16.1,-,N/A,,Unknown,310,2013-11-01 00:56:00
7:56 PM,44.1,33.1,65,29.67,-9999.0,WNW,9.2,-,N/A,,Unknown,290,2013-11-01 01:56:00
8:56 PM,43.0,34.0,71,29.67,-9999.0,WNW,13.8,-,N/A,,Unknown,300,2013-11-01 02:56:00
9:56 PM,45.0,35.1,68,29.68,-9999.0,WNW,17.3,-,N/A,,Unknown,300,2013-11-01 03:56:00
10:56 PM,44.1,35.1,71,29.70,-9999.0,WNW,20.7,-,N/A,,Unknown,300,2013-11-01 04:56:00
11:56 PM,44.1,36.0,73,29.70,-9999.0,NW,21.9,28.8,N/A,,Unknown,310,2013-11-01 05:56:00